| time (UTC) | temp F | wind direction | speed MPH | gust MPH | rain 1hr in | rain 24hr in | rain mn in | humidity % | barometer mb |
| 20260905123602 | 66 | 303 | 11.0 | 18.0 | 0.00 | 0.00 | 0.00 | 69 | 1022.7 |
| 20260905123103 | 65 | 289 | 7.0 | 14.0 | 0.00 | 0.00 | 0.00 | 70 | 1022.6 |
| 20260905122601 | 65 | 305 | 9.0 | 15.0 | 0.00 | 0.00 | 0.00 | 70 | 1022.7 |
| 20260905122102 | 66 | 299 | 10.0 | 16.0 | 0.00 | 0.00 | 0.00 | 69 | 1022.6 |
| 20260905121602 | 66 | 334 | 7.0 | 15.0 | 0.00 | 0.00 | 0.00 | 69 | 1022.5 |
| 20260905121103 | 66 | 304 | 10.0 | 16.0 | 0.00 | 0.00 | 0.00 | 69 | 1022.5 |
| 20260905115601 | 66 | 291 | 9.0 | 18.0 | 0.00 | 0.00 | 0.00 | 67 | 1022.5 |
| 20260905115102 | 66 | 302 | 9.0 | 17.0 | 0.00 | 0.00 | 0.00 | 67 | 1022.5 |
| 20260905114102 | 66 | 297 | 9.0 | 20.0 | 0.00 | 0.00 | 0.00 | 68 | 1022.5 |
| 20260905113601 | 66 | 283 | 9.0 | 22.0 | 0.00 | 0.01 | 0.00 | 68 | 1022.5 |
| 20260905112103 | 66 | 287 | 8.0 | 17.0 | 0.00 | 0.02 | 0.00 | 65 | 1022.1 |
| 20260905105102 | 66 | 304 | 9.0 | 16.0 | 0.00 | 0.05 | 0.00 | 68 | 1021.9 |
| 20260905104602 | 66 | 286 | 9.0 | 20.0 | 0.00 | 0.05 | 0.00 | 68 | 1021.9 |
| 20260905102102 | 67 | 288 | 9.0 | 18.0 | 0.00 | 0.11 | 0.00 | 67 | 1021.5 |
| 20260905101602 | 67 | 274 | 6.0 | 13.0 | 0.00 | 0.11 | 0.00 | 69 | 1021.4 |
| 20260905101103 | 66 | 299 | 9.0 | 20.0 | 0.00 | 0.11 | 0.00 | 70 | 1021.4 |
| 20260905092601 | 66 | 302 | 8.0 | 20.0 | 0.00 | 0.11 | 0.00 | 71 | 1020.8 |
| 20260905092102 | 66 | 289 | 7.0 | 15.0 | 0.00 | 0.11 | 0.00 | 71 | 1020.7 |
| 20260905090101 | 66 | 281 | 5.0 | 17.0 | 0.00 | 0.11 | 0.00 | 71 | 1020.5 |
| 20260905085601 | 66 | 296 | 9.0 | 16.0 | 0.00 | 0.11 | 0.00 | 71 | 1020.5 |
| 20260905085102 | 66 | 288 | 9.0 | 13.0 | 0.00 | 0.11 | 0.00 | 71 | 1020.5 |
| 20260905084601 | 65 | 287 | 9.0 | 17.0 | 0.00 | 0.11 | 0.00 | 70 | 1020.4 |
| 20260905084102 | 66 | 283 | 9.0 | 21.0 | 0.00 | 0.11 | 0.00 | 71 | 1020.4 |
| 20260905083601 | 65 | 272 | 10.0 | 16.0 | 0.00 | 0.11 | 0.00 | 73 | 1020.2 |
| 20260905083102 | 65 | 294 | 7.0 | 23.0 | 0.00 | 0.11 | 0.00 | 73 | 1020.0 |
| 20260905082603 | 65 | 278 | 9.0 | 15.0 | 0.00 | 0.11 | 0.00 | 73 | 1019.9 |
| 20260905082102 | 65 | 293 | 7.0 | 17.0 | 0.00 | 0.11 | 0.00 | 73 | 1019.9 |
| 20260905081601 | 65 | 302 | 8.0 | 15.0 | 0.00 | 0.11 | 0.00 | 74 | 1019.8 |
| 20260905081102 | 65 | 289 | 7.0 | 16.0 | 0.00 | 0.11 | 0.00 | 74 | 1019.6 |
| 20260905080101 | 65 | 295 | 9.0 | 18.0 | 0.00 | 0.11 | 0.00 | 75 | 1019.5 |
| 20260905075601 | 65 | 272 | 7.0 | 16.0 | 0.00 | 0.11 | 0.00 | 75 | 1019.4 |
| 20260905075102 | 65 | 275 | 5.0 | 16.0 | 0.00 | 0.11 | 0.00 | 75 | 1019.4 |
| 20260905074601 | 65 | 290 | 5.0 | 15.0 | 0.00 | 0.11 | 0.00 | 75 | 1019.4 |
| 20260905074102 | 65 | 283 | 9.0 | 17.0 | 0.00 | 0.11 | 0.00 | 74 | 1019.3 |
| 20260905073601 | 65 | 284 | 9.0 | 16.0 | 0.00 | 0.11 | 0.00 | 75 | 1019.2 |
| 20260905073102 | 65 | 289 | 10.0 | 16.0 | 0.00 | 0.11 | 0.00 | 74 | 1019.2 |
| 20260905072601 | 65 | 279 | 8.0 | 18.0 | 0.00 | 0.11 | 0.00 | 75 | 1019.2 |
| 20260905072104 | 65 | 282 | 5.0 | 13.0 | 0.00 | 0.11 | 0.00 | 76 | 1019.1 |
| 20260905071601 | 65 | 287 | 7.0 | 14.0 | 0.00 | 0.11 | 0.00 | 76 | 1018.9 |
| 20260905071102 | 64 | 289 | 7.0 | 14.0 | 0.00 | 0.11 | 0.00 | 76 | 1018.9 |
| 20260905064601 | 64 | 295 | 7.0 | 13.0 | 0.00 | 0.11 | 0.00 | 77 | 1018.7 |
| 20260905064102 | 64 | 268 | 9.0 | 17.0 | 0.00 | 0.11 | 0.00 | 77 | 1018.6 |
| 20260905063601 | 64 | 282 | 9.0 | 20.0 | 0.00 | 0.11 | 0.00 | 77 | 1018.6 |
| 20260905061601 | 64 | 275 | 7.0 | 15.0 | 0.00 | 0.11 | 0.00 | 78 | 1018.4 |
| 20260905061101 | 64 | 281 | 6.0 | 16.0 | 0.00 | 0.11 | 0.00 | 78 | 1018.3 |
| 20260905060101 | 64 | 277 | 6.0 | 14.0 | 0.00 | 0.11 | 0.00 | 79 | 1018.2 |
| 20260905055602 | 64 | 295 | 5.0 | 12.0 | 0.00 | 0.11 | 0.00 | 79 | 1018.1 |
| 20260905055102 | 64 | 290 | 5.0 | 10.0 | 0.00 | 0.11 | 0.00 | 79 | 1018.0 |
| 20260905053602 | 64 | 282 | 6.0 | 9.0 | 0.00 | 0.11 | 0.00 | 79 | 1017.9 |
| 20260905051601 | 64 | 266 | 5.0 | 8.0 | 0.00 | 0.11 | 0.00 | 79 | 1017.7 |
| 20260905051101 | 64 | 294 | 4.0 | 12.0 | 0.00 | 0.11 | 0.00 | 79 | 1017.6 |
| 20260905044600 | 64 | 250 | 5.0 | 12.0 | 0.00 | 0.11 | 0.00 | 78 | 1017.3 |
| 20260905043101 | 64 | 278 | 4.0 | 12.0 | 0.00 | 0.11 | 0.00 | 78 | 1017.3 |
| 20260905042601 | 64 | 281 | 5.0 | 10.0 | 0.00 | 0.11 | 0.00 | 78 | 1017.3 |
| 20260905042101 | 64 | 290 | 5.0 | 9.0 | 0.00 | 0.11 | 0.00 | 78 | 1017.3 |
| 20260905041601 | 64 | 270 | 5.0 | 10.0 | 0.00 | 0.11 | 0.00 | 78 | 1017.2 |
| 20260905041102 | 64 | 292 | 5.0 | 9.0 | 0.00 | 0.11 | 0.00 | 78 | 1017.2 |
| 20260905033601 | 63 | 281 | 3.0 | 8.0 | 0.00 | 0.11 | 0.00 | 77 | 1016.9 |
| 20260905033101 | 64 | 267 | 3.0 | 7.0 | 0.00 | 0.11 | 0.00 | 77 | 1016.9 |
| 20260905031601 | 63 | 285 | 5.0 | 9.0 | 0.00 | 0.11 | 0.00 | 77 | 1016.9 |
| 20260905031102 | 63 | 275 | 3.0 | 10.0 | 0.00 | 0.11 | 0.00 | 77 | 1016.9 |
| 20260905030100 | 63 | 267 | 5.0 | 9.0 | 0.00 | 0.11 | 0.00 | 77 | 1016.8 |
| 20260905025600 | 63 | 262 | 4.0 | 8.0 | 0.00 | 0.11 | 0.00 | 76 | 1016.8 |
| 20260905022600 | 63 | 261 | 4.0 | 9.0 | 0.00 | 0.11 | 0.00 | 74 | 1016.6 |
| 20260905022102 | 63 | 273 | 4.0 | 7.0 | 0.00 | 0.11 | 0.00 | 74 | 1016.5 |
| 20260905012101 | 64 | 317 | 3.0 | 13.0 | 0.00 | 0.11 | 0.00 | 73 | 1016.3 |
| 20260905011600 | 64 | 271 | 6.0 | 12.0 | 0.00 | 0.11 | 0.00 | 73 | 1016.3 |
| 20260905011101 | 64 | 286 | 6.0 | 10.0 | 0.00 | 0.11 | 0.00 | 74 | 1016.3 |
| 20260905003101 | 65 | 297 | 5.0 | 9.0 | 0.00 | 0.11 | 0.00 | 73 | 1016.3 |
| 20260905002601 | 65 | 303 | 4.0 | 9.0 | 0.00 | 0.11 | 0.00 | 72 | 1016.3 |
| 20260905001101 | 65 | 286 | 6.0 | 12.0 | 0.00 | 0.11 | 0.00 | 73 | 1016.2 |
| 20260904234100 | 65 | 287 | 6.0 | 14.0 | 0.00 | 0.11 | 0.00 | 71 | 1015.9 |
| 20260904233600 | 65 | 281 | 6.0 | 13.0 | 0.00 | 0.11 | 0.00 | 71 | 1015.9 |
| 20260904231101 | 65 | 290 | 5.0 | 14.0 | 0.00 | 0.11 | 0.00 | 71 | 1015.8 |
| 20260904225101 | 65 | 284 | 6.0 | 9.0 | 0.00 | 0.11 | 0.00 | 70 | 1015.8 |
| 20260904224601 | 65 | 293 | 5.0 | 12.0 | 0.00 | 0.11 | 0.00 | 69 | 1015.8 |
| 20260904224101 | 65 | 286 | 7.0 | 12.0 | 0.00 | 0.11 | 0.00 | 69 | 1015.8 |
| 20260904222601 | 66 | 294 | 6.0 | 12.0 | 0.00 | 0.11 | 0.00 | 68 | 1015.7 |
| 20260904220100 | 65 | 295 | 6.0 | 12.0 | 0.00 | 0.11 | 0.00 | 69 | 1015.6 |
| 20260904215600 | 66 | 290 | 4.0 | 10.0 | 0.00 | 0.11 | 0.11 | 68 | 1015.4 |
| 20260904215100 | 66 | 285 | 8.0 | 14.0 | 0.00 | 0.11 | 0.11 | 67 | 1015.4 |
| 20260904214600 | 66 | 292 | 5.0 | 14.0 | 0.00 | 0.11 | 0.11 | 67 | 1015.4 |
| 20260904214101 | 66 | 320 | 9.0 | 17.0 | 0.00 | 0.11 | 0.11 | 67 | 1015.4 |
| 20260904211600 | 66 | 274 | 5.0 | 12.0 | 0.00 | 0.11 | 0.11 | 68 | 1015.3 |
| 20260904211100 | 66 | 280 | 6.0 | 17.0 | 0.00 | 0.11 | 0.11 | 68 | 1015.3 |
| 20260904210100 | 66 | 300 | 7.0 | 12.0 | 0.00 | 0.11 | 0.11 | 68 | 1015.2 |
| 20260904205559 | 66 | 293 | 6.0 | 12.0 | 0.00 | 0.11 | 0.11 | 69 | 1015.0 |
| 20260904195559 | 66 | 287 | 5.0 | 16.0 | 0.00 | 0.11 | 0.11 | 69 | 1014.8 |
| 20260904195101 | 66 | 267 | 9.0 | 14.0 | 0.00 | 0.11 | 0.11 | 69 | 1014.8 |
| 20260904194600 | 66 | 272 | 6.0 | 10.0 | 0.00 | 0.11 | 0.11 | 69 | 1014.8 |
| 20260904194100 | 66 | 296 | 7.0 | 12.0 | 0.00 | 0.11 | 0.11 | 69 | 1014.7 |
| 20260904193601 | 66 | 299 | 6.0 | 12.0 | 0.00 | 0.11 | 0.11 | 68 | 1014.7 |
| 20260904192101 | 66 | 288 | 8.0 | 15.0 | 0.00 | 0.11 | 0.11 | 68 | 1014.4 |
| 20260904185101 | 66 | 276 | 6.0 | 9.0 | 0.00 | 0.11 | 0.11 | 70 | 1014.2 |
| 20260904184559 | 66 | 286 | 5.0 | 12.0 | 0.00 | 0.11 | 0.11 | 70 | 1014.1 |
| 20260904183100 | 66 | 282 | 5.0 | 10.0 | 0.00 | 0.11 | 0.11 | 71 | 1013.8 |
| 20260904182559 | 66 | 293 | 6.0 | 12.0 | 0.00 | 0.11 | 0.11 | 71 | 1013.9 |
| 20260904180100 | 66 | 306 | 5.0 | 13.0 | 0.00 | 0.11 | 0.11 | 71 | 1013.8 |
| 20260904175600 | 66 | 289 | 6.0 | 13.0 | 0.00 | 0.11 | 0.11 | 71 | 1013.8 |
| 20260904174100 | 67 | 283 | 7.0 | 14.0 | 0.00 | 0.11 | 0.11 | 73 | 1013.5 |
| 20260904173600 | 67 | 299 | 6.0 | 14.0 | 0.00 | 0.11 | 0.11 | 73 | 1013.6 |
| 20260904173101 | 67 | 308 | 7.0 | 15.0 | 0.00 | 0.11 | 0.11 | 74 | 1013.5 |
| 20260904172559 | 67 | 280 | 5.0 | 12.0 | 0.00 | 0.11 | 0.11 | 75 | 1013.6 |
| 20260904172101 | 67 | 306 | 6.0 | 12.0 | 0.00 | 0.11 | 0.11 | 75 | 1013.3 |
| 20260904165600 | 67 | 293 | 6.0 | 12.0 | 0.00 | 0.11 | 0.11 | 73 | 1013.0 |
| 20260904164600 | 67 | 294 | 9.0 | 16.0 | 0.00 | 0.11 | 0.11 | 71 | 1013.1 |
| 20260904164100 | 67 | 289 | 10.0 | 17.0 | 0.00 | 0.11 | 0.11 | 73 | 1013.2 |
| 20260904163559 | 67 | 284 | 9.0 | 15.0 | 0.00 | 0.11 | 0.11 | 74 | 1012.9 |
| 20260904163100 | 67 | 273 | 7.0 | 14.0 | 0.00 | 0.11 | 0.11 | 74 | 1012.8 |
| 20260904162600 | 67 | 292 | 6.0 | 16.0 | 0.00 | 0.11 | 0.11 | 74 | 1012.8 |
| 20260904162100 | 67 | 290 | 11.0 | 20.0 | 0.00 | 0.11 | 0.11 | 74 | 1012.7 |
| 20260904161559 | 67 | 292 | 7.0 | 16.0 | 0.00 | 0.11 | 0.11 | 76 | 1012.7 |
| 20260904161101 | 68 | 294 | 10.0 | 18.0 | 0.00 | 0.11 | 0.11 | 76 | 1012.4 |
| 20260904154100 | 68 | 245 | 5.0 | 9.0 | 0.00 | 0.11 | 0.11 | 74 | 1012.2 |
| 20260904153559 | 68 | 267 | 7.0 | 15.0 | 0.00 | 0.11 | 0.11 | 75 | 1012.3 |
| 20260904153100 | 68 | 286 | 9.0 | 14.0 | 0.00 | 0.11 | 0.11 | 76 | 1012.5 |
| 20260904152559 | 68 | 284 | 9.0 | 16.0 | 0.00 | 0.11 | 0.11 | 76 | 1012.7 |
| 20260904150059 | 68 | 291 | 8.0 | 18.0 | 0.00 | 0.11 | 0.11 | 79 | 1012.2 |
| 20260904145600 | 68 | 280 | 6.0 | 14.0 | 0.00 | 0.11 | 0.11 | 80 | 1012.2 |
| 20260904142559 | 68 | 290 | 8.0 | 14.0 | 0.00 | 0.11 | 0.11 | 83 | 1012.0 |
| 20260904142100 | 68 | 262 | 7.0 | 13.0 | 0.00 | 0.11 | 0.11 | 82 | 1011.7 |
| 20260904141600 | 68 | 273 | 6.0 | 12.0 | 0.00 | 0.11 | 0.11 | 82 | 1011.7 |
| 20260904141101 | 68 | 281 | 7.0 | 14.0 | 0.00 | 0.11 | 0.11 | 83 | 1011.7 |
| 20260904140059 | 68 | 293 | 10.0 | 17.0 | 0.00 | 0.11 | 0.11 | 82 | 1011.6 |
| 20260904135600 | 68 | 272 | 9.0 | 18.0 | 0.00 | 0.11 | 0.11 | 82 | 1011.6 |
| 20260904135101 | 68 | 293 | 12.0 | 25.0 | 0.00 | 0.11 | 0.11 | 81 | 1011.7 |
| 20260904134600 | 68 | 288 | 5.0 | 20.0 | 0.00 | 0.11 | 0.11 | 82 | 1011.7 |
| 20260904133100 | 68 | 289 | 8.0 | 16.0 | 0.00 | 0.11 | 0.11 | 84 | 1011.2 |
| 20260904132559 | 68 | 273 | 9.0 | 18.0 | 0.00 | 0.11 | 0.11 | 85 | 1011.3 |
| 20260904132059 | 67 | 275 | 9.0 | 15.0 | 0.00 | 0.11 | 0.11 | 86 | 1011.2 |
| 20260904131559 | 67 | 269 | 7.0 | 15.0 | 0.00 | 0.11 | 0.11 | 86 | 1011.1 |
| 20260904131101 | 67 | 257 | 5.0 | 17.0 | 0.00 | 0.11 | 0.11 | 86 | 1011.1 |